Weather History for Holloman AFB, NM

Change the Weather History Date:

Sunday, October 7, 2012

  Actual Average Record
Temperature  
Mean Temperature 57 °F -  
Max Temperature 67 °F 77 °F 85 °F (2014)
Min Temperature 47 °F 50 °F 37 °F (1998)
Degree Days  
Heating Degree Days 8    
Growing Degree Days 7 (Base 50)    
Moisture  
Dew Point 38 °F    
Average Humidity 48    
Maximum Humidity 63    
Minimum Humidity 35    
Precipitation  
Precipitation 0.00 in - - ()
Sea Level Pressure  
Sea Level Pressure 29.93 in    
Wind  
Wind Speed 7 mph (SW)    
Max Wind Speed 13 mph    
Max Gust Speed 18 mph    
Visibility 10 miles    
Events      
Averages and records for this station are not official NWS values.
T = Trace of Precipitation, MM = Missing Value Source: NWS Daily Summary

Daily Weather History Graph

Daily Weather History Graph

Search for Another Location

Airport:

Trip Planner

Search our weather history database for the weather conditions in past years. The results will help you decide how hot, cold, wet, or windy it might be!

Date:

Astronomy

Oct. 07, 2012 Rise Set
Actual Time 7:03 AM MDT 6:40 PM MDT
Civil Twilight 6:38 AM MDT 7:05 PM MDT
Nautical Twilight 6:09 AM MDT 7:33 PM MDT
Astronomical Twilight 5:41 AM MDT 8:02 PM MDT
Moon No Moon Rise 1:29 PM MDT (10/7)
Length of Visible Light 12h 26m
Length of Day
11h 37m
Waning Gibbous, 55% of the Moon is Illuminated
Oct 7
Waning Gibbous
Oct 8
Last Quarter
Oct 15
New
Oct 21
First Quarter
Oct 29
Full

Hourly Weather History & Observations

Time (MDT) Temp. Dew Point Humidity Pressure Visibility Wind Dir Wind Speed Gust Speed Precip Events Conditions
12:55 AM 62.1 °F 41.9 °F 48% 29.81 in 10.0 mi SSW 12.7 mph 18.4 mph N/A   Clear
1:55 AM 60.3 °F 42.4 °F 52% 29.84 in 10.0 mi WSW 12.7 mph - N/A   Clear
2:55 AM 57.9 °F 41.5 °F 54% 29.86 in 10.0 mi West 8.1 mph - N/A   Scattered Clouds
3:55 AM 55.0 °F 37.9 °F 53% 29.87 in 10.0 mi SSW 5.8 mph - N/A   Clear
4:55 AM 53.1 °F 37.0 °F 55% 29.89 in 10.0 mi WNW 6.9 mph - N/A   Clear
5:55 AM 50.7 °F 36.1 °F 57% 29.91 in 10.0 mi WNW 8.1 mph - N/A   Clear
6:55 AM 47.7 °F 35.8 °F 63% 29.96 in 10.0 mi North 5.8 mph - N/A   Clear
7:55 AM 48.9 °F 35.2 °F 59% 29.97 in 10.0 mi North 6.9 mph - N/A   Clear
8:55 AM 50.9 °F 35.1 °F 55% 30.01 in 10.0 mi North 4.6 mph - N/A   Clear
9:55 AM 53.1 °F 36.1 °F 53% 30.02 in 10.0 mi Calm Calm - N/A   Clear
10:55 AM 56.1 °F 37.0 °F 49% 30.00 in 10.0 mi Calm Calm - N/A   Clear
11:55 AM 59.4 °F 38.3 °F 46% 29.99 in 10.0 mi SSE 5.8 mph - N/A   Clear
12:55 PM 60.6 °F 39.4 °F 45% 29.97 in 10.0 mi South 5.8 mph - N/A   Clear
1:55 PM 63.0 °F 39.4 °F 42% 29.94 in 10.0 mi South 4.6 mph - N/A   Clear
2:55 PM 64.4 °F 39.6 °F 40% 29.91 in 10.0 mi SSE 5.8 mph - N/A   Clear
3:55 PM 66.2 °F 39.0 °F 37% 29.89 in 10.0 mi South 6.9 mph - N/A   Clear
4:55 PM 67.6 °F 38.7 °F 35% 29.87 in 10.0 mi SSE 5.8 mph - N/A   Clear
5:55 PM 67.6 °F 39.2 °F 35% 29.89 in 10.0 mi SSW 4.6 mph - N/A   Clear
6:55 PM 65.8 °F 38.3 °F 36% 29.91 in 10.0 mi Calm Calm - N/A   Clear
7:55 PM 63.9 °F 37.9 °F 38% 29.93 in 10.0 mi Calm Calm - N/A   Clear
8:55 PM 59.2 °F 37.8 °F 45% 29.95 in 10.0 mi Calm Calm - N/A   Clear
9:55 PM 57.9 °F 39.6 °F 50% 29.96 in 10.0 mi South 5.8 mph - N/A   Clear
10:55 PM 52.5 °F 37.4 °F 56% 29.97 in 10.0 mi WNW 4.6 mph - N/A   Clear
11:55 PM 49.6 °F 35.1 °F 57% 29.96 in 10.0 mi North 4.6 mph - N/A   Clear